EAN961 DNJA-DNKA

Flight info

Callsign EAN961
Flight time 0h 34m
Altitude 12000
Route JOS
Aircraft PC12/L-SDFGRWY/S

Departure

Time 2026-04-21 23:50
Airport Jalingo Airport (DNJA)

Arrival

Time 2026-04-22 00:24
Airport Kaduna International Airport (DNKA)
Time Latitude Longitude Altitude Speed Heading
2026-04-21 23:43 8.90150 11.28739 670 ft 0 kts 249°
2026-04-21 23:47 8.90144 11.28730 672 ft 7 kts 241°
2026-04-21 23:47 8.90163 11.28654 671 ft 18 kts 327°
2026-04-21 23:47 8.90281 11.28567 671 ft 27 kts 259°
2026-04-21 23:47 8.90207 11.28366 671 ft 35 kts 250°
2026-04-21 23:48 8.90119 11.28111 671 ft 41 kts 249°
2026-04-21 23:48 8.90016 11.27820 672 ft 46 kts 251°
2026-04-21 23:48 8.89948 11.27636 674 ft 15 kts 140°
2026-04-21 23:48 8.89977 11.27708 673 ft 28 kts 71°
2026-04-21 23:49 8.90101 11.28059 672 ft 77 kts 70°
2026-04-21 23:49 8.90328 11.28702 672 ft 115 kts 70°
2026-04-21 23:49 8.90602 11.29527 841 ft 126 kts 72°
2026-04-21 23:49 8.90846 11.30393 1121 ft 139 kts 89°
2026-04-21 23:50 8.90420 11.31241 1523 ft 139 kts 147°
2026-04-21 23:50 8.89529 11.31362 2018 ft 129 kts 198°
2026-04-21 23:50 8.88849 11.30828 2465 ft 125 kts 239°
2026-04-21 23:50 8.88821 11.29655 3012 ft 131 kts 281°
2026-04-21 23:51 8.89391 11.27781 3809 ft 147 kts 283°
2026-04-21 23:51 8.90013 11.25798 4711 ft 149 kts 285°
2026-04-21 23:51 8.90652 11.23739 5591 ft 157 kts 287°
2026-04-21 23:51 8.91315 11.21603 6508 ft 160 kts 287°
2026-04-21 23:52 8.91991 11.19434 7366 ft 165 kts 288°
2026-04-21 23:52 8.92686 11.17199 8259 ft 168 kts 289°
2026-04-21 23:52 8.93395 11.14922 9137 ft 171 kts 290°
2026-04-21 23:52 8.94120 11.12591 9998 ft 175 kts 290°
2026-04-21 23:53 8.94858 11.10212 10778 ft 180 kts 290°
2026-04-21 23:53 8.95621 11.07758 11589 ft 185 kts 289°
2026-04-21 23:53 8.96407 11.05228 12399 ft 191 kts 289°
2026-04-21 23:53 8.97211 11.02638 13208 ft 196 kts 289°
2026-04-21 23:54 8.98048 10.99942 13793 ft 213 kts 288°
2026-04-21 23:54 8.98683 10.97913 13812 ft 242 kts 289°
2026-04-21 23:54 8.99754 10.94457 13806 ft 268 kts 288°
2026-04-21 23:54 9.00888 10.90785 13802 ft 277 kts 289°
2026-04-21 23:55 9.02049 10.87040 13800 ft 281 kts 288°
2026-04-21 23:55 9.03220 10.83260 13800 ft 281 kts 288°
2026-04-21 23:55 9.04391 10.79479 13798 ft 282 kts 288°
2026-04-21 23:55 9.05561 10.75700 13793 ft 281 kts 288°
2026-04-21 23:56 9.06718 10.71962 13787 ft 281 kts 288°
2026-04-21 23:56 9.07886 10.68186 13788 ft 281 kts 288°
2026-04-21 23:56 9.09051 10.64419 13788 ft 281 kts 288°
2026-04-21 23:56 9.10212 10.60660 13785 ft 280 kts 288°
2026-04-21 23:57 9.11377 10.56893 13790 ft 280 kts 288°
2026-04-21 23:57 9.12541 10.53121 13789 ft 279 kts 288°
2026-04-21 23:57 9.13700 10.49369 13788 ft 279 kts 288°
2026-04-21 23:57 9.14859 10.45609 13792 ft 279 kts 288°
2026-04-21 23:58 9.16003 10.41904 13789 ft 279 kts 288°
2026-04-21 23:58 9.17170 10.38117 13789 ft 279 kts 288°
2026-04-21 23:58 9.18311 10.34416 13791 ft 279 kts 288°
2026-04-21 23:58 9.19467 10.30663 13792 ft 278 kts 288°
2026-04-21 23:59 9.20621 10.26918 13790 ft 279 kts 288°
2026-04-21 23:59 9.21772 10.23179 13794 ft 278 kts 288°
2026-04-21 23:59 9.22926 10.19430 13796 ft 278 kts 288°
2026-04-21 23:59 9.24075 10.15692 13798 ft 278 kts 288°
2026-04-22 00:00 9.25228 10.11946 13806 ft 278 kts 288°
2026-04-22 00:00 9.26378 10.08202 13804 ft 279 kts 288°
2026-04-22 00:00 9.27533 10.04444 13807 ft 279 kts 288°
2026-04-22 00:00 9.28684 10.00696 13808 ft 279 kts 288°
2026-04-22 00:01 9.29818 9.97002 13812 ft 279 kts 288°
2026-04-22 00:01 9.30969 9.93252 13815 ft 279 kts 287°
2026-04-22 00:01 9.32119 9.89499 13818 ft 279 kts 287°
2026-04-22 00:01 9.33268 9.85747 13820 ft 279 kts 287°
2026-04-22 00:02 9.34423 9.81992 13823 ft 279 kts 288°
2026-04-22 00:02 9.35573 9.78233 13834 ft 279 kts 287°
2026-04-22 00:02 9.36723 9.74474 13831 ft 279 kts 287°
2026-04-22 00:02 9.37878 9.70706 13837 ft 280 kts 287°
2026-04-22 00:03 9.39027 9.66947 13846 ft 280 kts 288°
2026-04-22 00:03 9.40181 9.63180 13849 ft 280 kts 287°
2026-04-22 00:03 9.41333 9.59409 13855 ft 281 kts 287°
2026-04-22 00:03 9.42487 9.55632 13860 ft 280 kts 287°
2026-04-22 00:04 9.43634 9.51879 13873 ft 280 kts 287°
2026-04-22 00:04 9.44782 9.48118 13879 ft 280 kts 287°
2026-04-22 00:04 9.45934 9.44343 13884 ft 280 kts 288°
2026-04-22 00:04 9.47086 9.40566 13887 ft 281 kts 287°
2026-04-22 00:05 9.48238 9.36786 13894 ft 281 kts 287°
2026-04-22 00:05 9.49395 9.32994 13896 ft 281 kts 287°
2026-04-22 00:05 9.50531 9.29263 13905 ft 281 kts 287°
2026-04-22 00:05 9.51685 9.25477 13910 ft 281 kts 287°
2026-04-22 00:06 9.52840 9.21680 13920 ft 281 kts 287°
2026-04-22 00:06 9.53994 9.17893 13920 ft 281 kts 287°
2026-04-22 00:06 9.55146 9.14106 13927 ft 281 kts 287°
2026-04-22 00:06 9.56295 9.10321 13926 ft 280 kts 287°
2026-04-22 00:07 9.57445 9.06542 13930 ft 281 kts 287°
2026-04-22 00:07 9.58596 9.02755 13927 ft 280 kts 287°
2026-04-22 00:07 9.59744 8.98975 13932 ft 280 kts 287°
2026-04-22 00:07 9.60889 8.95201 13936 ft 280 kts 287°
2026-04-22 00:08 9.62038 8.91419 13927 ft 280 kts 287°
2026-04-22 00:08 9.63168 8.87692 13929 ft 280 kts 287°
2026-04-22 00:08 9.64476 8.84001 13914 ft 276 kts 303°
2026-04-22 00:08 9.66792 8.80929 13928 ft 274 kts 311°
2026-04-22 00:09 9.69156 8.77889 13924 ft 274 kts 310°
2026-04-22 00:09 9.71511 8.74848 13921 ft 274 kts 310°
2026-04-22 00:09 9.73862 8.71815 13916 ft 274 kts 310°
2026-04-22 00:09 9.76215 8.68780 13915 ft 274 kts 310°
2026-04-22 00:10 9.78572 8.65736 13913 ft 275 kts 310°
2026-04-22 00:10 9.80931 8.62689 13917 ft 275 kts 310°
2026-04-22 00:10 9.83297 8.59637 13914 ft 274 kts 310°
2026-04-22 00:10 9.85649 8.56599 13904 ft 273 kts 310°
2026-04-22 00:11 9.87967 8.53605 13903 ft 274 kts 310°
2026-04-22 00:11 9.90309 8.50578 13900 ft 273 kts 310°
2026-04-22 00:11 9.92650 8.47552 13902 ft 272 kts 310°
2026-04-22 00:11 9.94980 8.44537 13899 ft 272 kts 310°
2026-04-22 00:12 9.97320 8.41511 13897 ft 271 kts 310°
2026-04-22 00:12 9.99645 8.38504 13893 ft 271 kts 310°
2026-04-22 00:12 10.01974 8.35490 13892 ft 271 kts 310°
2026-04-22 00:12 10.04303 8.32475 13890 ft 271 kts 310°
2026-04-22 00:13 10.06628 8.29464 13890 ft 271 kts 310°
2026-04-22 00:13 10.08952 8.26456 13889 ft 271 kts 310°
2026-04-22 00:13 10.11270 8.23452 13884 ft 271 kts 310°
2026-04-22 00:13 10.13566 8.20478 13882 ft 271 kts 310°
2026-04-22 00:14 10.15881 8.17477 13885 ft 270 kts 310°
2026-04-22 00:14 10.18199 8.14473 13887 ft 271 kts 310°
2026-04-22 00:14 10.20525 8.11456 13883 ft 271 kts 310°
2026-04-22 00:14 10.22847 8.08443 13880 ft 270 kts 310°
2026-04-22 00:15 10.25162 8.05443 13881 ft 270 kts 310°
2026-04-22 00:15 10.27468 8.02449 13878 ft 269 kts 310°
2026-04-22 00:15 10.29782 7.99445 13881 ft 269 kts 310°
2026-04-22 00:15 10.32090 7.96447 13872 ft 270 kts 310°
2026-04-22 00:16 10.34395 7.93454 13878 ft 269 kts 310°
2026-04-22 00:16 10.36679 7.90485 13870 ft 270 kts 310°
2026-04-22 00:16 10.38990 7.87485 13875 ft 269 kts 310°
2026-04-22 00:16 10.41325 7.84448 13539 ft 277 kts 310°
2026-04-22 00:17 10.43704 7.81354 13171 ft 277 kts 310°
2026-04-22 00:17 10.46094 7.78245 12581 ft 283 kts 309°
2026-04-22 00:17 10.48512 7.75098 11832 ft 281 kts 309°
2026-04-22 00:17 10.50918 7.71967 11089 ft 280 kts 309°
2026-04-22 00:18 10.53312 7.68851 10358 ft 280 kts 308°
2026-04-22 00:18 10.55702 7.65738 9613 ft 278 kts 308°
2026-04-22 00:18 10.58065 7.62662 8861 ft 274 kts 308°
2026-04-22 00:18 10.60361 7.59670 8164 ft 270 kts 308°
2026-04-22 00:19 10.62671 7.56660 7453 ft 269 kts 308°
2026-04-22 00:19 10.64975 7.53682 6738 ft 266 kts 308°
2026-04-22 00:19 10.67225 7.50716 6034 ft 264 kts 308°
2026-04-22 00:19 10.68681 7.48826 5573 ft 255 kts 308°
2026-04-22 00:20 10.69755 7.47428 5260 ft 251 kts 307°
2026-04-22 00:20 10.70823 7.46032 4935 ft 241 kts 307°
2026-04-22 00:20 10.71826 7.44727 4631 ft 222 kts 307°
2026-04-22 00:20 10.72736 7.43546 4352 ft 203 kts 306°
2026-04-22 00:21 10.73572 7.42452 4122 ft 191 kts 305°
2026-04-22 00:21 10.74356 7.41384 3872 ft 186 kts 297°
2026-04-22 00:21 10.74768 7.40176 3657 ft 176 kts 275°
2026-04-22 00:21 10.74751 7.38970 3414 ft 167 kts 256°
2026-04-22 00:22 10.74372 7.37900 3191 ft 157 kts 239°
2026-04-22 00:22 10.73753 7.37055 2995 ft 143 kts 227°
2026-04-22 00:22 10.73147 7.36323 2814 ft 125 kts 229°
2026-04-22 00:22 10.72661 7.35725 2630 ft 95 kts 228°
2026-04-22 00:23 10.72246 7.35224 2388 ft 93 kts 226°
2026-04-22 00:23 10.71824 7.34723 2319 ft 88 kts 227°
2026-04-22 00:23 10.71422 7.34244 2251 ft 98 kts 226°
2026-04-22 00:23 10.70963 7.33652 2197 ft 116 kts 230°
2026-04-22 00:24 10.70435 7.33021 2117 ft 116 kts 227°
2026-04-22 00:24 10.69923 7.32417 2075 ft 108 kts 226°
2026-04-22 00:24 10.69520 7.31940 2059 ft 66 kts 231°
2026-04-22 00:24 10.69330 7.31719 2054 ft 30 kts 227°
2026-04-22 00:25 10.69147 7.31518 2049 ft 47 kts 230°
2026-04-22 00:25 10.68849 7.31309 2044 ft 49 kts 194°
2026-04-22 00:25 10.68821 7.31415 2046 ft 32 kts 47°
2026-04-22 00:25 10.69011 7.31637 2050 ft 50 kts 47°
2026-04-22 00:26 10.69274 7.31946 2059 ft 64 kts 50°
2026-04-22 00:26 10.69549 7.32299 2063 ft 45 kts 46°
2026-04-22 00:26 10.69627 7.32487 2063 ft 28 kts 122°
2026-04-22 00:26 10.69538 7.32489 2060 ft 18 kts 236°
2026-04-22 00:27 10.69514 7.32461 2060 ft 0 kts 228°